Time,TemperatureF,DewpointF,PressureIn,WindDirection,WindDirectionDegrees,WindSpeedMPH,WindSpeedGustMPH,Humidity,HourlyPrecipIn,Conditions,Clouds,dailyrainin,SoftwareType,DateUTC
2013-08-29 00:01:00,79.3,67.0,29.12,NW,315,0.0,0.0,66,0.00,,,0.00,VWS V14.01,2013-08-29 04:01:00,
2013-08-29 00:06:00,79.3,67.0,29.12,NW,315,0.0,0.0,66,0.00,,,0.00,VWS V14.01,2013-08-29 04:06:00,
2013-08-29 00:11:00,79.2,67.3,29.12,NE,45,0.0,0.0,67,0.00,,,0.00,VWS V14.01,2013-08-29 04:11:00,
2013-08-29 00:16:00,79.0,67.1,29.12,East,90,0.0,0.0,67,0.00,,,0.00,VWS V14.01,2013-08-29 04:16:00,
2013-08-29 00:21:00,78.8,67.4,29.12,NW,315,0.0,0.0,68,0.00,,,0.00,VWS V14.01,2013-08-29 04:21:00,
2013-08-29 00:26:00,78.8,67.4,29.12,NW,315,0.0,0.9,68,0.00,,,0.00,VWS V14.01,2013-08-29 04:26:00,
2013-08-29 00:31:00,79.0,67.5,29.12,NW,315,0.0,0.0,68,0.00,,,0.00,VWS V14.01,2013-08-29 04:31:00,
2013-08-29 00:36:00,79.0,67.5,29.12,East,90,0.0,0.0,68,0.00,,,0.00,VWS V14.01,2013-08-29 04:36:00,
2013-08-29 00:41:00,79.0,67.5,29.12,NW,315,0.0,0.0,68,0.00,,,0.00,VWS V14.01,2013-08-29 04:41:00,
2013-08-29 00:46:00,79.0,67.5,29.12,NW,315,0.0,0.0,68,0.00,,,0.00,VWS V14.01,2013-08-29 04:46:00,
2013-08-29 00:51:00,78.8,67.4,29.12,NW,315,0.0,0.0,68,0.00,,,0.00,VWS V14.01,2013-08-29 04:51:00,
2013-08-29 00:56:00,79.0,67.5,29.12,NW,315,0.0,0.0,68,0.00,,,0.00,VWS V14.01,2013-08-29 04:56:00,
2013-08-29 01:01:00,79.0,67.5,29.12,NNW,338,0.0,0.0,68,0.00,,,0.00,VWS V14.01,2013-08-29 05:01:00,
2013-08-29 01:06:00,79.0,67.5,29.12,NNW,338,0.0,0.0,68,0.00,,,0.00,VWS V14.01,2013-08-29 05:06:00,
2013-08-29 01:11:00,78.8,67.8,29.12,West,270,0.0,0.0,69,0.00,,,0.00,VWS V14.01,2013-08-29 05:11:00,
2013-08-29 01:16:00,78.8,67.8,29.12,WNW,292,0.0,0.0,69,0.00,,,0.00,VWS V14.01,2013-08-29 05:16:00,
2013-08-29 01:21:00,78.8,67.8,29.12,WNW,292,0.0,0.0,69,0.00,,,0.00,VWS V14.01,2013-08-29 05:21:00,
2013-08-29 01:26:00,78.6,68.0,29.12,West,270,0.0,0.0,70,0.00,,,0.00,VWS V14.01,2013-08-29 05:26:00,
2013-08-29 01:31:00,78.4,68.3,29.12,NW,315,0.0,0.0,71,0.00,,,0.00,VWS V14.01,2013-08-29 05:31:00,
2013-08-29 01:36:00,78.3,68.5,29.12,SW,225,0.0,0.0,72,0.00,,,0.00,VWS V14.01,2013-08-29 05:36:00,
2013-08-29 01:41:00,78.3,68.5,29.12,WSW,248,0.0,0.0,72,0.00,,,0.00,VWS V14.01,2013-08-29 05:41:00,
2013-08-29 01:46:00,78.3,68.5,29.12,WSW,248,0.0,0.0,72,0.00,,,0.00,VWS V14.01,2013-08-29 05:46:00,
2013-08-29 01:51:00,78.3,68.1,29.12,WSW,248,0.0,0.0,71,0.00,,,0.00,VWS V14.01,2013-08-29 05:51:00,
2013-08-29 01:56:00,78.1,68.3,29.12,WSW,248,0.0,0.0,72,0.00,,,0.00,VWS V14.01,2013-08-29 05:56:00,
2013-08-29 02:01:00,77.9,68.2,29.12,West,270,0.0,0.0,72,0.00,,,0.00,VWS V14.01,2013-08-29 06:01:00,
2013-08-29 02:06:00,77.9,68.2,29.12,West,270,0.0,0.0,72,0.00,,,0.00,VWS V14.01,2013-08-29 06:06:00,
2013-08-29 02:11:00,77.9,68.2,29.12,West,270,0.0,0.0,72,0.00,,,0.00,VWS V14.01,2013-08-29 06:11:00,
2013-08-29 02:16:00,77.7,68.0,29.12,West,270,0.0,0.0,72,0.00,,,0.00,VWS V14.01,2013-08-29 06:16:00,
2013-08-29 02:21:00,77.7,68.0,29.12,NW,315,0.0,0.0,72,0.00,,,0.00,VWS V14.01,2013-08-29 06:21:00,
2013-08-29 02:26:00,77.5,67.8,29.09,NW,315,0.0,0.0,72,0.00,,,0.00,VWS V14.01,2013-08-29 06:26:00,
2013-08-29 02:31:00,77.5,67.8,29.09,NW,315,0.0,0.0,72,0.00,,,0.00,VWS V14.01,2013-08-29 06:31:00,
2013-08-29 02:36:00,77.4,67.6,29.09,NW,315,0.0,0.0,72,0.00,,,0.00,VWS V14.01,2013-08-29 06:36:00,
2013-08-29 02:41:00,77.4,68.0,29.09,NW,315,0.0,0.0,73,0.00,,,0.00,VWS V14.01,2013-08-29 06:41:00,
2013-08-29 02:46:00,77.2,67.9,29.09,WSW,248,0.0,0.0,73,0.00,,,0.00,VWS V14.01,2013-08-29 06:46:00,
2013-08-29 02:51:00,77.2,67.9,29.09,WSW,248,0.0,0.0,73,0.00,,,0.00,VWS V14.01,2013-08-29 06:51:00,
2013-08-29 02:56:00,77.2,67.9,29.09,WSW,248,0.0,0.0,73,0.00,,,0.00,VWS V14.01,2013-08-29 06:56:00,
2013-08-29 03:01:00,77.0,67.7,29.09,WSW,248,0.0,0.0,73,0.00,,,0.00,VWS V14.01,2013-08-29 07:01:00,
2013-08-29 03:06:00,77.0,67.7,29.09,WSW,248,0.0,0.0,73,0.00,,,0.00,VWS V14.01,2013-08-29 07:06:00,
2013-08-29 03:11:00,76.8,67.9,29.09,WSW,248,0.0,0.0,74,0.00,,,0.00,VWS V14.01,2013-08-29 07:11:00,
2013-08-29 03:16:00,76.8,67.9,29.09,North,0,0.0,0.0,74,0.00,,,0.00,VWS V14.01,2013-08-29 07:16:00,
2013-08-29 03:21:00,76.6,67.7,29.09,NE,45,0.0,0.0,74,0.00,,,0.00,VWS V14.01,2013-08-29 07:21:00,
2013-08-29 03:26:00,76.6,67.7,29.09,NE,45,0.0,0.0,74,0.00,,,0.00,VWS V14.01,2013-08-29 07:26:00,
2013-08-29 03:31:00,76.6,67.7,29.09,NNW,338,0.0,0.0,74,0.00,,,0.00,VWS V14.01,2013-08-29 07:31:00,
2013-08-29 03:36:00,76.5,67.6,29.09,NNW,338,0.0,0.0,74,0.00,,,0.00,VWS V14.01,2013-08-29 07:36:00,
2013-08-29 03:41:00,76.3,67.4,29.09,NW,315,0.0,0.0,74,0.00,,,0.00,VWS V14.01,2013-08-29 07:41:00,
2013-08-29 03:46:00,76.3,67.4,29.09,NW,315,0.0,0.0,74,0.00,,,0.00,VWS V14.01,2013-08-29 07:46:00,
2013-08-29 03:51:00,76.1,67.6,29.09,NW,315,0.0,0.0,75,0.00,,,0.00,VWS V14.01,2013-08-29 07:51:00,
2013-08-29 03:56:00,75.9,67.4,29.12,NW,315,0.0,0.0,75,0.00,,,0.00,VWS V14.01,2013-08-29 07:56:00,
2013-08-29 04:01:00,75.7,67.6,29.12,NW,315,0.0,0.0,76,0.00,,,0.00,VWS V14.01,2013-08-29 08:01:00,
2013-08-29 04:06:00,75.7,67.6,29.12,NW,315,0.0,0.0,76,0.00,,,0.00,VWS V14.01,2013-08-29 08:06:00,
2013-08-29 04:11:00,75.9,67.4,29.12,NW,315,0.0,0.0,75,0.00,,,0.00,VWS V14.01,2013-08-29 08:11:00,
2013-08-29 04:16:00,75.6,67.8,29.12,SW,225,0.0,0.0,77,0.00,,,0.00,VWS V14.01,2013-08-29 08:16:00,
2013-08-29 04:21:00,75.7,67.6,29.12,WSW,248,0.0,0.0,76,0.00,,,0.00,VWS V14.01,2013-08-29 08:21:00,
2013-08-29 04:26:00,75.6,67.5,29.12,West,270,0.0,0.0,76,0.00,,,0.00,VWS V14.01,2013-08-29 08:26:00,
2013-08-29 04:31:00,75.6,67.5,29.12,NW,315,0.0,0.0,76,0.00,,,0.00,VWS V14.01,2013-08-29 08:31:00,
2013-08-29 04:36:00,75.6,67.1,29.12,West,270,0.0,0.0,75,0.00,,,0.00,VWS V14.01,2013-08-29 08:36:00,
2013-08-29 04:41:00,75.6,67.5,29.09,WNW,292,0.0,0.0,76,0.00,,,0.00,VWS V14.01,2013-08-29 08:41:00,
2013-08-29 04:46:00,75.4,67.3,29.09,WNW,292,0.0,0.0,76,0.00,,,0.00,VWS V14.01,2013-08-29 08:46:00,
2013-08-29 04:51:00,75.6,67.5,29.09,West,270,0.0,0.9,76,0.00,,,0.00,VWS V14.01,2013-08-29 08:51:00,
2013-08-29 04:56:00,75.4,67.3,29.09,West,270,0.0,0.0,76,0.00,,,0.00,VWS V14.01,2013-08-29 08:56:00,
2013-08-29 05:01:00,75.4,67.3,29.09,South,180,0.0,0.0,76,0.00,,,0.00,VWS V14.01,2013-08-29 09:01:00,
2013-08-29 05:06:00,75.4,67.3,29.09,East,90,0.0,0.0,76,0.00,,,0.00,VWS V14.01,2013-08-29 09:06:00,
2013-08-29 05:11:00,75.4,67.3,29.09,East,90,0.0,0.0,76,0.00,,,0.00,VWS V14.01,2013-08-29 09:11:00,
2013-08-29 05:16:00,75.4,66.9,29.12,NE,45,0.0,0.0,75,0.00,,,0.00,VWS V14.01,2013-08-29 09:16:00,
2013-08-29 05:21:00,75.2,66.7,29.12,North,0,0.0,0.0,75,0.00,,,0.00,VWS V14.01,2013-08-29 09:21:00,
2013-08-29 05:26:00,75.0,66.6,29.09,North,0,0.0,0.0,75,0.00,,,0.00,VWS V14.01,2013-08-29 09:26:00,
2013-08-29 05:31:00,75.0,66.6,29.09,North,0,0.0,0.0,75,0.00,,,0.00,VWS V14.01,2013-08-29 09:31:00,
2013-08-29 05:36:00,75.0,66.6,29.09,North,0,0.0,0.0,75,0.00,,,0.00,VWS V14.01,2013-08-29 09:36:00,
2013-08-29 05:41:00,74.8,66.4,29.12,North,0,0.0,0.0,75,0.00,,,0.00,VWS V14.01,2013-08-29 09:41:00,
2013-08-29 05:46:00,74.8,66.4,29.12,North,0,0.0,0.0,75,0.00,,,0.00,VWS V14.01,2013-08-29 09:46:00,
2013-08-29 05:51:00,74.7,66.2,29.12,NNW,338,0.0,0.0,75,0.00,,,0.00,VWS V14.01,2013-08-29 09:51:00,
2013-08-29 05:56:00,74.5,66.4,29.09,NNW,338,0.0,0.0,76,0.00,,,0.00,VWS V14.01,2013-08-29 09:56:00,
2013-08-29 06:01:00,74.5,66.0,29.09,NNW,338,0.0,0.0,75,0.00,,,0.00,VWS V14.01,2013-08-29 10:01:00,
2013-08-29 06:06:00,74.5,66.0,29.09,NNW,338,0.0,0.0,75,0.00,,,0.00,VWS V14.01,2013-08-29 10:06:00,
2013-08-29 06:11:00,74.3,65.9,29.09,NNW,338,0.0,0.0,75,0.00,,,0.00,VWS V14.01,2013-08-29 10:11:00,
2013-08-29 06:16:00,74.3,65.9,29.09,NNW,338,0.0,0.0,75,0.00,,,0.00,VWS V14.01,2013-08-29 10:16:00,
2013-08-29 06:21:00,74.1,65.7,29.09,NNW,338,0.0,0.0,75,0.00,,,0.00,VWS V14.01,2013-08-29 10:21:00,
2013-08-29 06:26:00,73.9,65.9,29.12,NNW,338,0.0,0.0,76,0.00,,,0.00,VWS V14.01,2013-08-29 10:26:00,
2013-08-29 06:31:00,73.9,65.9,29.12,NW,315,0.0,0.0,76,0.00,,,0.00,VWS V14.01,2013-08-29 10:31:00,
2013-08-29 06:36:00,73.8,65.7,29.12,NW,315,0.0,0.0,76,0.00,,,0.00,VWS V14.01,2013-08-29 10:36:00,
2013-08-29 06:41:00,73.6,65.6,29.12,NW,315,0.0,0.0,76,0.00,,,0.00,VWS V14.01,2013-08-29 10:41:00,
2013-08-29 06:46:00,73.4,65.4,29.12,NW,315,0.0,0.0,76,0.00,,,0.00,VWS V14.01,2013-08-29 10:46:00,
2013-08-29 06:51:00,73.4,65.8,29.12,NW,315,0.0,0.0,77,0.00,,,0.00,VWS V14.01,2013-08-29 10:51:00,
2013-08-29 06:56:00,73.4,65.8,29.12,NW,315,0.0,0.0,77,0.00,,,0.00,VWS V14.01,2013-08-29 10:56:00,
2013-08-29 07:01:00,73.2,65.6,29.12,NNW,338,0.0,0.0,77,0.00,,,0.00,VWS V14.01,2013-08-29 11:01:00,
2013-08-29 07:06:00,73.2,65.6,29.12,NNW,338,0.0,0.0,77,0.00,,,0.00,VWS V14.01,2013-08-29 11:06:00,
2013-08-29 07:11:00,73.2,65.6,29.12,NNW,338,0.0,0.0,77,0.00,,,0.00,VWS V14.01,2013-08-29 11:11:00,
2013-08-29 07:16:00,73.0,65.4,29.12,NNW,338,0.0,0.0,77,0.00,,,0.00,VWS V14.01,2013-08-29 11:16:00,
2013-08-29 07:21:00,72.9,65.2,29.12,NW,315,0.0,0.0,77,0.00,,,0.00,VWS V14.01,2013-08-29 11:21:00,
2013-08-29 07:26:00,72.9,65.6,29.12,NW,315,0.0,0.0,78,0.00,,,0.00,VWS V14.01,2013-08-29 11:26:00,
2013-08-29 07:31:00,72.9,65.6,29.12,NW,315,0.0,0.0,78,0.00,,,0.00,VWS V14.01,2013-08-29 11:31:00,
2013-08-29 07:36:00,72.9,65.6,29.12,NW,315,0.0,0.0,78,0.00,,,0.00,VWS V14.01,2013-08-29 11:36:00,
2013-08-29 07:41:00,73.0,65.8,29.12,NW,315,0.0,0.0,78,0.00,,,0.00,VWS V14.01,2013-08-29 11:41:00,
2013-08-29 07:46:00,72.9,65.6,29.12,NW,315,0.0,0.0,78,0.00,,,0.00,VWS V14.01,2013-08-29 11:46:00,
2013-08-29 07:51:00,73.0,65.8,29.12,WNW,292,0.0,0.0,78,0.00,,,0.00,VWS V14.01,2013-08-29 11:51:00,
2013-08-29 07:56:00,73.0,66.2,29.14,West,270,0.0,0.0,79,0.00,,,0.00,VWS V14.01,2013-08-29 11:56:00,
2013-08-29 08:01:00,72.9,66.0,29.14,NNW,338,0.0,0.0,79,0.00,,,0.00,VWS V14.01,2013-08-29 12:01:00,
2013-08-29 08:06:00,72.9,66.0,29.14,WNW,292,0.0,0.0,79,0.00,,,0.00,VWS V14.01,2013-08-29 12:06:00,
2013-08-29 08:11:00,72.9,66.0,29.14,WNW,292,0.0,0.0,79,0.00,,,0.00,VWS V14.01,2013-08-29 12:11:00,
2013-08-29 08:16:00,72.9,66.3,29.14,West,270,0.0,0.0,80,0.00,,,0.00,VWS V14.01,2013-08-29 12:16:00,
2013-08-29 08:21:00,73.0,66.5,29.14,NW,315,0.0,0.0,80,0.00,,,0.00,VWS V14.01,2013-08-29 12:21:00,
2013-08-29 08:26:00,73.0,66.5,29.14,WNW,292,0.0,0.0,80,0.00,,,0.00,VWS V14.01,2013-08-29 12:26:00,
2013-08-29 08:31:00,73.2,66.7,29.14,WNW,292,0.0,0.9,80,0.00,,,0.00,VWS V14.01,2013-08-29 12:31:00,
2013-08-29 08:36:00,73.2,66.7,29.14,WNW,292,0.0,0.0,80,0.00,,,0.00,VWS V14.01,2013-08-29 12:36:00,
2013-08-29 08:41:00,73.4,66.9,29.14,West,270,1.3,1.3,80,0.00,,,0.00,VWS V14.01,2013-08-29 12:41:00,
2013-08-29 08:46:00,73.4,66.9,29.14,WNW,292,0.0,0.0,80,0.00,,,0.00,VWS V14.01,2013-08-29 12:46:00,
2013-08-29 08:51:00,73.6,66.7,29.14,NW,315,1.3,2.0,79,0.00,,,0.00,VWS V14.01,2013-08-29 12:51:00,
2013-08-29 08:56:00,73.6,67.0,29.14,NW,315,0.0,0.0,80,0.00,,,0.00,VWS V14.01,2013-08-29 12:56:00,
2013-08-29 09:01:00,73.6,66.7,29.14,WNW,292,0.0,1.1,79,0.00,,,0.00,VWS V14.01,2013-08-29 13:01:00,
2013-08-29 09:06:00,73.6,66.7,29.14,WSW,248,0.0,0.0,79,0.00,,,0.00,VWS V14.01,2013-08-29 13:06:00,
2013-08-29 09:11:00,73.8,67.2,29.14,NNW,338,0.0,0.0,80,0.00,,,0.00,VWS V14.01,2013-08-29 13:11:00,
2013-08-29 09:16:00,73.8,67.2,29.14,West,270,1.1,1.6,80,0.00,,,0.00,VWS V14.01,2013-08-29 13:16:00,
2013-08-29 09:21:00,73.8,67.2,29.14,WSW,248,1.1,1.1,80,0.00,,,0.00,VWS V14.01,2013-08-29 13:21:00,
2013-08-29 09:26:00,73.9,67.0,29.14,WNW,292,1.3,2.7,79,0.00,,,0.00,VWS V14.01,2013-08-29 13:26:00,
2013-08-29 09:31:00,73.9,67.0,29.14,WSW,248,1.1,1.1,79,0.00,,,0.00,VWS V14.01,2013-08-29 13:31:00,
2013-08-29 09:36:00,74.1,67.2,29.14,NW,315,0.9,2.0,79,0.00,,,0.00,VWS V14.01,2013-08-29 13:36:00,
2013-08-29 09:41:00,74.1,66.8,29.14,NW,315,0.0,1.1,78,0.00,,,0.00,VWS V14.01,2013-08-29 13:41:00,
2013-08-29 09:46:00,74.3,67.0,29.14,SW,225,0.0,0.9,78,0.00,,,0.00,VWS V14.01,2013-08-29 13:46:00,
2013-08-29 09:51:00,74.5,67.2,29.14,West,270,0.0,0.0,78,0.00,,,0.00,VWS V14.01,2013-08-29 13:51:00,
2013-08-29 09:56:00,74.5,67.2,29.14,SSW,202,0.9,0.9,78,0.00,,,0.00,VWS V14.01,2013-08-29 13:56:00,
2013-08-29 10:01:00,74.7,67.7,29.14,SSW,202,1.6,1.6,79,0.00,,,0.00,VWS V14.01,2013-08-29 14:01:00,
2013-08-29 10:06:00,74.8,67.5,29.14,South,180,0.9,0.9,78,0.00,,,0.00,VWS V14.01,2013-08-29 14:06:00,
2013-08-29 10:11:00,75.0,67.7,29.14,South,180,1.6,1.6,78,0.00,,,0.00,VWS V14.01,2013-08-29 14:11:00,
2013-08-29 10:16:00,75.0,67.3,29.14,South,180,1.6,1.6,77,0.00,,,0.00,VWS V14.01,2013-08-29 14:16:00,
2013-08-29 10:21:00,75.2,67.5,29.14,NW,315,0.0,1.1,77,0.00,,,0.00,VWS V14.01,2013-08-29 14:21:00,
2013-08-29 10:26:00,75.2,67.1,29.14,SW,225,0.0,1.1,76,0.00,,,0.00,VWS V14.01,2013-08-29 14:26:00,
2013-08-29 10:31:00,75.4,66.9,29.14,SSW,202,2.0,2.0,75,0.00,,,0.00,VWS V14.01,2013-08-29 14:31:00,
2013-08-29 10:36:00,75.6,67.1,29.14,West,270,1.3,2.2,75,0.00,,,0.00,VWS V14.01,2013-08-29 14:36:00,
2013-08-29 10:41:00,75.7,67.3,29.14,South,180,0.0,0.0,75,0.00,,,0.00,VWS V14.01,2013-08-29 14:41:00,
2013-08-29 10:46:00,75.9,67.0,29.14,West,270,1.1,1.6,74,0.00,,,0.00,VWS V14.01,2013-08-29 14:46:00,
2013-08-29 10:51:00,75.9,67.0,29.14,SSW,202,1.1,1.1,74,0.00,,,0.00,VWS V14.01,2013-08-29 14:51:00,
2013-08-29 10:56:00,76.1,67.2,29.14,WSW,248,0.0,0.0,74,0.00,,,0.00,VWS V14.01,2013-08-29 14:56:00,
2013-08-29 11:01:00,76.3,67.8,29.14,South,180,1.1,1.1,75,0.00,,,0.00,VWS V14.01,2013-08-29 15:01:00,
2013-08-29 11:06:00,76.5,67.6,29.14,SW,225,0.9,1.1,74,0.00,,,0.00,VWS V14.01,2013-08-29 15:06:00,
2013-08-29 11:11:00,76.5,67.2,29.14,South,180,2.0,2.0,73,0.00,,,0.00,VWS V14.01,2013-08-29 15:11:00,
2013-08-29 11:16:00,76.5,66.8,29.14,South,180,1.1,1.1,72,0.00,,,0.00,VWS V14.01,2013-08-29 15:16:00,
2013-08-29 11:21:00,76.8,67.1,29.14,West,270,0.0,0.0,72,0.00,,,0.00,VWS V14.01,2013-08-29 15:21:00,
2013-08-29 11:26:00,77.0,66.9,29.14,South,180,0.9,1.1,71,0.00,,,0.00,VWS V14.01,2013-08-29 15:26:00,
2013-08-29 11:31:00,77.4,67.2,29.14,West,270,0.0,0.0,71,0.00,,,0.00,VWS V14.01,2013-08-29 15:31:00,
2013-08-29 11:36:00,77.5,67.0,29.14,West,270,0.0,0.0,70,0.00,,,0.00,VWS V14.01,2013-08-29 15:36:00,
2013-08-29 11:41:00,77.4,66.8,29.14,South,180,0.0,0.0,70,0.00,,,0.00,VWS V14.01,2013-08-29 15:41:00,
2013-08-29 11:46:00,77.5,67.0,29.14,SW,225,0.0,0.0,70,0.00,,,0.00,VWS V14.01,2013-08-29 15:46:00,
2013-08-29 11:51:00,77.7,67.2,29.14,WNW,292,0.0,0.0,70,0.00,,,0.00,VWS V14.01,2013-08-29 15:51:00,
2013-08-29 11:56:00,77.7,67.2,29.14,South,180,0.0,0.0,70,0.00,,,0.00,VWS V14.01,2013-08-29 15:56:00,
2013-08-29 12:01:00,77.7,67.2,29.14,NW,315,1.3,1.3,70,0.00,,,0.00,VWS V14.01,2013-08-29 16:01:00,
2013-08-29 12:06:00,77.9,66.9,29.14,SW,225,0.0,0.0,69,0.00,,,0.00,VWS V14.01,2013-08-29 16:06:00,
2013-08-29 12:11:00,78.3,66.8,29.14,South,180,1.6,1.6,68,0.00,,,0.00,VWS V14.01,2013-08-29 16:11:00,
2013-08-29 12:16:00,78.6,67.2,29.14,SSW,202,1.3,1.3,68,0.00,,,0.00,VWS V14.01,2013-08-29 16:16:00,
2013-08-29 12:21:00,78.6,67.6,29.14,South,180,0.0,0.0,69,0.00,,,0.00,VWS V14.01,2013-08-29 16:21:00,
2013-08-29 12:26:00,79.0,67.1,29.14,South,180,0.0,0.0,67,0.00,,,0.00,VWS V14.01,2013-08-29 16:26:00,
2013-08-29 12:31:00,79.2,66.8,29.14,SSE,158,1.3,2.0,66,0.00,,,0.00,VWS V14.01,2013-08-29 16:31:00,
2013-08-29 12:36:00,79.3,67.0,29.14,SW,225,0.0,0.0,66,0.00,,,0.00,VWS V14.01,2013-08-29 16:36:00,
2013-08-29 12:41:00,79.5,67.2,29.17,West,270,0.0,0.0,66,0.00,,,0.00,VWS V14.01,2013-08-29 16:41:00,
2013-08-29 12:46:00,79.7,66.9,29.17,NW,315,0.0,0.0,65,0.00,,,0.00,VWS V14.01,2013-08-29 16:46:00,
2013-08-29 12:51:00,80.1,67.2,29.17,SE,135,2.0,2.0,65,0.00,,,0.00,VWS V14.01,2013-08-29 16:51:00,
2013-08-29 12:56:00,80.4,66.7,29.17,SSW,202,1.6,1.6,63,0.00,,,0.00,VWS V14.01,2013-08-29 16:56:00,
2013-08-29 13:01:00,80.2,66.5,29.17,NW,315,1.1,1.1,63,0.00,,,0.00,VWS V14.01,2013-08-29 17:01:00,
2013-08-29 13:06:00,79.9,66.6,29.17,WNW,292,1.1,1.1,64,0.00,,,0.00,VWS V14.01,2013-08-29 17:06:00,
2013-08-29 13:11:00,79.9,66.6,29.14,West,270,0.0,0.0,64,0.00,,,0.00,VWS V14.01,2013-08-29 17:11:00,
2013-08-29 13:16:00,79.9,66.6,29.14,SW,225,0.0,0.9,64,0.00,,,0.00,VWS V14.01,2013-08-29 17:16:00,
2013-08-29 13:21:00,80.1,66.3,29.14,NE,45,0.0,0.0,63,0.00,,,0.00,VWS V14.01,2013-08-29 17:21:00,
2013-08-29 13:26:00,80.2,66.1,29.17,WNW,292,1.3,1.3,62,0.00,,,0.00,VWS V14.01,2013-08-29 17:26:00,
2013-08-29 13:31:00,80.8,65.6,29.17,NW,315,1.1,1.6,60,0.00,,,0.00,VWS V14.01,2013-08-29 17:31:00,
2013-08-29 13:36:00,81.1,64.0,29.17,SSE,158,2.5,2.5,56,0.00,,,0.00,VWS V14.01,2013-08-29 17:36:00,
2013-08-29 13:41:00,81.3,65.1,29.17,WNW,292,0.9,0.9,58,0.00,,,0.00,VWS V14.01,2013-08-29 17:41:00,
2013-08-29 13:46:00,81.1,65.9,29.17,SSW,202,0.9,0.9,60,0.00,,,0.00,VWS V14.01,2013-08-29 17:46:00,
2013-08-29 13:51:00,81.1,65.9,29.17,SW,225,0.0,0.0,60,0.00,,,0.00,VWS V14.01,2013-08-29 17:51:00,
2013-08-29 13:56:00,81.3,66.1,29.17,South,180,0.0,0.0,60,0.00,,,0.00,VWS V14.01,2013-08-29 17:56:00,
2013-08-29 14:01:00,81.0,66.3,29.17,NW,315,1.1,1.1,61,0.00,,,0.00,VWS V14.01,2013-08-29 18:01:00,
2013-08-29 14:06:00,80.8,66.1,29.17,SW,225,0.9,1.1,61,0.00,,,0.00,VWS V14.01,2013-08-29 18:06:00,
2013-08-29 14:11:00,81.0,66.3,29.17,NE,45,0.0,0.0,61,0.00,,,0.00,VWS V14.01,2013-08-29 18:11:00,
2013-08-29 14:16:00,81.3,65.1,29.17,SW,225,1.3,2.2,58,0.00,,,0.00,VWS V14.01,2013-08-29 18:16:00,
2013-08-29 14:21:00,81.5,66.3,29.17,SE,135,2.5,2.5,60,0.00,,,0.00,VWS V14.01,2013-08-29 18:21:00,
2013-08-29 14:26:00,82.2,66.0,29.17,SSE,158,2.5,3.1,58,0.00,,,0.00,VWS V14.01,2013-08-29 18:26:00,
2013-08-29 14:31:00,82.2,67.0,29.17,NW,315,0.0,0.0,60,0.00,,,0.00,VWS V14.01,2013-08-29 18:31:00,
2013-08-29 14:36:00,81.9,65.7,29.17,SW,225,2.0,2.0,58,0.00,,,0.00,VWS V14.01,2013-08-29 18:36:00,
2013-08-29 14:41:00,81.7,66.0,29.17,South,180,1.1,1.1,59,0.00,,,0.00,VWS V14.01,2013-08-29 18:41:00,
2013-08-29 14:46:00,81.3,65.6,29.17,SE,135,0.9,0.9,59,0.00,,,0.00,VWS V14.01,2013-08-29 18:46:00,
2013-08-29 14:51:00,81.3,65.1,29.17,SSW,202,0.0,1.3,58,0.00,,,0.00,VWS V14.01,2013-08-29 18:51:00,
2013-08-29 14:56:00,81.9,65.7,29.14,West,270,0.0,2.0,58,0.00,,,0.00,VWS V14.01,2013-08-29 18:56:00,
2013-08-29 15:01:00,82.0,65.3,29.14,SW,225,0.0,1.1,57,0.00,,,0.00,VWS V14.01,2013-08-29 19:01:00,
2013-08-29 15:06:00,82.0,65.8,29.14,NW,315,1.6,2.0,58,0.00,,,0.00,VWS V14.01,2013-08-29 19:06:00,
2013-08-29 15:11:00,82.0,65.8,29.14,NW,315,0.0,2.0,58,0.00,,,0.00,VWS V14.01,2013-08-29 19:11:00,
2013-08-29 15:16:00,81.7,65.0,29.14,West,270,1.6,1.6,57,0.00,,,0.00,VWS V14.01,2013-08-29 19:16:00,
2013-08-29 15:21:00,81.7,65.0,29.14,South,180,0.0,0.0,57,0.00,,,0.00,VWS V14.01,2013-08-29 19:21:00,
2013-08-29 15:26:00,81.9,65.7,29.14,SW,225,1.1,1.3,58,0.00,,,0.00,VWS V14.01,2013-08-29 19:26:00,
2013-08-29 15:31:00,81.9,65.7,29.14,South,180,0.0,0.0,58,0.00,,,0.00,VWS V14.01,2013-08-29 19:31:00,
2013-08-29 15:36:00,81.9,65.2,29.14,South,180,1.1,1.1,57,0.00,,,0.00,VWS V14.01,2013-08-29 19:36:00,
2013-08-29 15:41:00,82.4,65.1,29.14,NW,315,1.6,2.5,56,0.00,,,0.00,VWS V14.01,2013-08-29 19:41:00,
2013-08-29 15:45:00,82.8,65.5,29.14,NW,315,2.5,2.7,56,0.00,,,0.00,VWS V14.01,2013-08-29 19:45:00,
2013-08-29 15:50:00,82.4,65.7,29.14,SW,225,0.0,1.6,57,0.00,,,0.00,VWS V14.01,2013-08-29 19:50:00,
2013-08-29 15:55:00,82.0,65.3,29.14,SW,225,0.0,0.9,57,0.00,,,0.00,VWS V14.01,2013-08-29 19:55:00,
2013-08-29 16:00:00,82.4,65.1,29.14,SW,225,0.0,1.3,56,0.00,,,0.00,VWS V14.01,2013-08-29 20:00:00,
2013-08-29 16:05:00,83.1,65.3,29.14,SSW,202,0.0,1.1,55,0.00,,,0.00,VWS V14.01,2013-08-29 20:05:00,
2013-08-29 16:10:00,82.6,64.3,29.14,SW,225,0.0,1.3,54,0.00,,,0.00,VWS V14.01,2013-08-29 20:10:00,
2013-08-29 16:15:00,82.2,65.0,29.14,SW,225,0.0,1.3,56,0.00,,,0.00,VWS V14.01,2013-08-29 20:15:00,
2013-08-29 16:20:00,82.4,65.1,29.14,South,180,0.0,0.0,56,0.00,,,0.00,VWS V14.01,2013-08-29 20:20:00,
2013-08-29 16:25:00,82.4,64.6,29.14,West,270,1.3,1.6,55,0.00,,,0.00,VWS V14.01,2013-08-29 20:25:00,
2013-08-29 16:30:00,82.2,65.0,29.14,West,270,0.0,1.3,56,0.00,,,0.00,VWS V14.01,2013-08-29 20:30:00,
2013-08-29 16:35:00,82.2,65.5,29.14,WNW,292,0.9,0.9,57,0.00,,,0.00,VWS V14.01,2013-08-29 20:35:00,
2013-08-29 16:40:00,82.4,65.7,29.14,North,0,1.3,1.6,57,0.00,,,0.00,VWS V14.01,2013-08-29 20:40:00,
2013-08-29 16:45:00,82.6,64.8,29.14,SW,225,2.5,2.5,55,0.00,,,0.00,VWS V14.01,2013-08-29 20:45:00,
2013-08-29 16:50:00,82.9,64.1,29.14,South,180,0.0,2.5,53,0.00,,,0.00,VWS V14.01,2013-08-29 20:50:00,
2013-08-29 16:55:00,83.1,65.3,29.14,West,270,0.0,0.9,55,0.00,,,0.00,VWS V14.01,2013-08-29 20:55:00,
2013-08-29 17:00:00,82.8,64.4,29.14,NW,315,0.0,1.6,54,0.00,,,0.00,VWS V14.01,2013-08-29 21:00:00,
2013-08-29 17:05:00,82.8,65.0,29.14,NNW,338,2.0,2.0,55,0.00,,,0.00,VWS V14.01,2013-08-29 21:05:00,
2013-08-29 17:10:00,82.9,64.6,29.14,WNW,292,1.3,2.0,54,0.00,,,0.00,VWS V14.01,2013-08-29 21:10:00,
2013-08-29 17:15:00,83.1,64.8,29.14,SW,225,0.0,2.0,54,0.00,,,0.00,VWS V14.01,2013-08-29 21:15:00,
2013-08-29 17:20:00,83.3,64.9,29.14,NNW,338,0.0,1.3,54,0.00,,,0.00,VWS V14.01,2013-08-29 21:20:00,
2013-08-29 17:25:00,83.5,65.6,29.14,West,270,0.0,0.0,55,0.00,,,0.00,VWS V14.01,2013-08-29 21:25:00,
2013-08-29 17:30:00,83.5,65.1,29.14,West,270,2.2,2.7,54,0.00,,,0.00,VWS V14.01,2013-08-29 21:30:00,
2013-08-29 17:35:00,83.5,65.1,29.14,SSW,202,0.0,0.0,54,0.00,,,0.00,VWS V14.01,2013-08-29 21:35:00,
2013-08-29 17:40:00,83.7,64.2,29.14,WSW,248,1.1,1.1,52,0.00,,,0.00,VWS V14.01,2013-08-29 21:40:00,
2013-08-29 17:45:00,83.8,64.3,29.14,SW,225,0.0,1.6,52,0.00,,,0.00,VWS V14.01,2013-08-29 21:45:00,
2013-08-29 17:50:00,83.7,64.7,29.14,West,270,0.0,0.0,53,0.00,,,0.00,VWS V14.01,2013-08-29 21:50:00,
2013-08-29 17:55:00,83.7,64.7,29.14,NW,315,0.0,0.0,53,0.00,,,0.00,VWS V14.01,2013-08-29 21:55:00,
2013-08-29 18:00:00,83.8,64.9,29.14,WSW,248,0.9,1.1,53,0.00,,,0.00,VWS V14.01,2013-08-29 22:00:00,
2013-08-29 18:05:00,84.0,65.1,29.14,South,180,0.0,0.9,53,0.00,,,0.00,VWS V14.01,2013-08-29 22:05:00,
2013-08-29 18:10:00,84.2,64.1,29.14,SW,225,0.9,0.9,51,0.00,,,0.00,VWS V14.01,2013-08-29 22:10:00,
2013-08-29 18:15:00,84.0,64.5,29.14,ENE,68,0.0,0.0,52,0.00,,,0.00,VWS V14.01,2013-08-29 22:15:00,
2013-08-29 18:20:00,84.2,64.7,29.14,SE,135,0.0,0.0,52,0.00,,,0.00,VWS V14.01,2013-08-29 22:20:00,
2013-08-29 18:25:00,84.2,64.7,29.14,NW,315,0.0,0.0,52,0.00,,,0.00,VWS V14.01,2013-08-29 22:25:00,
2013-08-29 18:30:00,84.0,64.0,29.14,West,270,0.0,0.0,51,0.00,,,0.00,VWS V14.01,2013-08-29 22:30:00,
2013-08-29 18:35:00,84.0,62.8,29.14,West,270,1.6,1.6,49,0.00,,,0.00,VWS V14.01,2013-08-29 22:35:00,
2013-08-29 18:40:00,84.2,64.1,29.14,SW,225,0.0,0.0,51,0.00,,,0.00,VWS V14.01,2013-08-29 22:40:00,
2013-08-29 18:45:00,84.2,64.1,29.14,ESE,112,0.9,0.9,51,0.00,,,0.00,VWS V14.01,2013-08-29 22:45:00,
2013-08-29 18:50:00,84.2,64.7,29.14,NNW,338,1.1,1.1,52,0.00,,,0.00,VWS V14.01,2013-08-29 22:50:00,
2013-08-29 18:55:00,84.2,64.7,29.14,NW,315,0.0,1.3,52,0.00,,,0.00,VWS V14.01,2013-08-29 22:55:00,
2013-08-29 19:00:00,84.2,65.2,29.14,ESE,112,0.0,0.9,53,0.00,,,0.00,VWS V14.01,2013-08-29 23:00:00,
2013-08-29 19:05:00,84.0,65.6,29.14,SW,225,0.0,0.0,54,0.00,,,0.00,VWS V14.01,2013-08-29 23:05:00,
2013-08-29 19:10:00,84.2,65.8,29.14,SE,135,0.0,0.0,54,0.00,,,0.00,VWS V14.01,2013-08-29 23:10:00,
2013-08-29 19:15:00,83.8,65.4,29.14,SE,135,0.0,0.0,54,0.00,,,0.00,VWS V14.01,2013-08-29 23:15:00,
2013-08-29 19:20:00,83.7,65.8,29.14,East,90,0.0,0.0,55,0.00,,,0.00,VWS V14.01,2013-08-29 23:20:00,
2013-08-29 19:25:00,83.5,66.2,29.14,East,90,0.0,0.0,56,0.00,,,0.00,VWS V14.01,2013-08-29 23:25:00,
2013-08-29 19:30:00,83.3,66.0,29.14,NE,45,0.0,0.0,56,0.00,,,0.00,VWS V14.01,2013-08-29 23:30:00,
2013-08-29 19:35:00,83.1,65.8,29.14,NE,45,0.0,0.0,56,0.00,,,0.00,VWS V14.01,2013-08-29 23:35:00,
2013-08-29 19:40:00,82.8,65.5,29.14,NE,45,0.0,0.0,56,0.00,,,0.00,VWS V14.01,2013-08-29 23:40:00,
2013-08-29 19:45:00,82.6,65.8,29.14,NE,45,0.0,0.0,57,0.00,,,0.00,VWS V14.01,2013-08-29 23:45:00,
2013-08-29 19:50:00,82.0,65.8,29.14,NE,45,0.0,0.0,58,0.00,,,0.00,VWS V14.01,2013-08-29 23:50:00,
2013-08-29 19:55:00,81.9,65.7,29.14,East,90,0.0,0.0,58,0.00,,,0.00,VWS V14.01,2013-08-29 23:55:00,
2013-08-29 20:00:00,81.7,65.5,29.14,East,90,0.0,0.0,58,0.00,,,0.00,VWS V14.01,2013-08-30 00:00:00,
2013-08-29 20:05:00,81.3,65.1,29.14,North,0,0.0,0.0,58,0.00,,,0.00,VWS V14.01,2013-08-30 00:05:00,
2013-08-29 20:10:00,81.1,65.0,29.14,North,0,0.0,0.0,58,0.00,,,0.00,VWS V14.01,2013-08-30 00:10:00,
2013-08-29 20:15:00,81.0,65.3,29.14,North,0,0.0,0.0,59,0.00,,,0.00,VWS V14.01,2013-08-30 00:15:00,
2013-08-29 20:20:00,80.8,65.1,29.14,North,0,0.0,0.0,59,0.00,,,0.00,VWS V14.01,2013-08-30 00:20:00,
2013-08-29 20:25:00,80.4,65.3,29.14,North,0,0.0,0.0,60,0.00,,,0.00,VWS V14.01,2013-08-30 00:25:00,
2013-08-29 20:30:00,80.1,64.9,29.14,North,0,0.0,0.0,60,0.00,,,0.00,VWS V14.01,2013-08-30 00:30:00,
2013-08-29 20:35:00,79.9,64.8,29.14,North,0,0.0,0.0,60,0.00,,,0.00,VWS V14.01,2013-08-30 00:35:00,
2013-08-29 20:40:00,79.9,64.8,29.14,North,0,0.0,0.0,60,0.00,,,0.00,VWS V14.01,2013-08-30 00:40:00,
2013-08-29 20:45:00,79.3,64.7,29.14,North,0,0.0,0.0,61,0.00,,,0.00,VWS V14.01,2013-08-30 00:45:00,
2013-08-29 20:50:00,79.0,64.4,29.14,North,0,0.0,0.0,61,0.00,,,0.00,VWS V14.01,2013-08-30 00:50:00,
2013-08-29 20:55:00,78.6,64.5,29.14,North,0,0.0,0.0,62,0.00,,,0.00,VWS V14.01,2013-08-30 00:55:00,
2013-08-29 21:00:00,78.4,64.3,29.17,North,0,0.0,0.0,62,0.00,,,0.00,VWS V14.01,2013-08-30 01:00:00,
2013-08-29 21:05:00,78.4,64.8,29.17,North,0,0.0,0.0,63,0.00,,,0.00,VWS V14.01,2013-08-30 01:05:00,
2013-08-29 21:10:00,78.3,64.6,29.17,North,0,0.0,0.0,63,0.00,,,0.00,VWS V14.01,2013-08-30 01:10:00,
2013-08-29 21:15:00,77.9,64.3,29.14,North,0,0.0,0.0,63,0.00,,,0.00,VWS V14.01,2013-08-30 01:15:00,
2013-08-29 21:20:00,77.9,64.3,29.14,North,0,0.0,0.0,63,0.00,,,0.00,VWS V14.01,2013-08-30 01:20:00,
2013-08-29 21:25:00,77.7,64.6,29.14,North,0,0.0,0.0,64,0.00,,,0.00,VWS V14.01,2013-08-30 01:25:00,
2013-08-29 21:30:00,77.4,64.2,29.17,North,0,0.0,0.0,64,0.00,,,0.00,VWS V14.01,2013-08-30 01:30:00,
2013-08-29 21:35:00,77.2,64.1,29.17,North,0,0.0,0.0,64,0.00,,,0.00,VWS V14.01,2013-08-30 01:35:00,
2013-08-29 21:40:00,77.0,64.3,29.17,North,0,0.0,0.0,65,0.00,,,0.00,VWS V14.01,2013-08-30 01:40:00,
2013-08-29 21:45:00,76.8,64.2,29.17,North,0,0.0,0.0,65,0.00,,,0.00,VWS V14.01,2013-08-30 01:45:00,
2013-08-29 21:50:00,76.8,64.2,29.17,North,0,0.0,0.0,65,0.00,,,0.00,VWS V14.01,2013-08-30 01:50:00,
2013-08-29 21:55:00,76.6,64.4,29.17,North,0,0.0,0.0,66,0.00,,,0.00,VWS V14.01,2013-08-30 01:55:00,
2013-08-29 22:00:00,76.5,64.3,29.17,North,0,0.0,0.0,66,0.00,,,0.00,VWS V14.01,2013-08-30 02:00:00,
2013-08-29 22:05:00,76.3,64.1,29.17,North,0,0.0,0.0,66,0.00,,,0.00,VWS V14.01,2013-08-30 02:05:00,
2013-08-29 22:10:00,75.9,63.8,29.17,North,0,0.0,0.0,66,0.00,,,0.00,VWS V14.01,2013-08-30 02:10:00,
2013-08-29 22:15:00,75.9,64.2,29.17,North,0,0.0,0.0,67,0.00,,,0.00,VWS V14.01,2013-08-30 02:15:00,
2013-08-29 22:20:00,75.4,63.7,29.17,North,0,0.0,0.0,67,0.00,,,0.00,VWS V14.01,2013-08-30 02:20:00,
2013-08-29 22:25:00,75.2,63.9,29.17,North,0,0.0,0.0,68,0.00,,,0.00,VWS V14.01,2013-08-30 02:25:00,
2013-08-29 22:30:00,75.0,63.8,29.17,North,0,0.0,0.0,68,0.00,,,0.00,VWS V14.01,2013-08-30 02:30:00,
2013-08-29 22:35:00,75.0,63.8,29.17,North,0,0.0,0.0,68,0.00,,,0.00,VWS V14.01,2013-08-30 02:35:00,
2013-08-29 22:40:00,74.8,63.6,29.17,North,0,0.0,0.0,68,0.00,,,0.00,VWS V14.01,2013-08-30 02:40:00,
2013-08-29 22:45:00,74.7,63.8,29.14,North,0,0.0,0.0,69,0.00,,,0.00,VWS V14.01,2013-08-30 02:45:00,
2013-08-29 22:50:00,74.3,63.5,29.14,North,0,0.0,0.0,69,0.00,,,0.00,VWS V14.01,2013-08-30 02:50:00,
2013-08-29 22:55:00,74.1,63.3,29.14,North,0,0.0,0.0,69,0.00,,,0.00,VWS V14.01,2013-08-30 02:55:00,
2013-08-29 23:00:00,74.3,63.9,29.14,North,0,0.0,0.0,70,0.00,,,0.00,VWS V14.01,2013-08-30 03:00:00,
2013-08-29 23:05:00,74.3,63.9,29.14,North,0,0.0,0.0,70,0.00,,,0.00,VWS V14.01,2013-08-30 03:05:00,
2013-08-29 23:10:00,74.1,63.7,29.14,North,0,0.0,0.0,70,0.00,,,0.00,VWS V14.01,2013-08-30 03:10:00,
2013-08-29 23:15:00,73.9,63.5,29.14,North,0,0.0,0.0,70,0.00,,,0.00,VWS V14.01,2013-08-30 03:15:00,
2013-08-29 23:20:00,73.8,63.4,29.14,North,0,0.0,0.0,70,0.00,,,0.00,VWS V14.01,2013-08-30 03:20:00,
2013-08-29 23:25:00,73.8,63.4,29.14,North,0,0.0,0.0,70,0.00,,,0.00,VWS V14.01,2013-08-30 03:25:00,
2013-08-29 23:30:00,73.8,63.4,29.14,North,0,0.0,0.0,70,0.00,,,0.00,VWS V14.01,2013-08-30 03:30:00,
2013-08-29 23:35:00,73.6,63.6,29.14,North,0,0.0,0.0,71,0.00,,,0.00,VWS V14.01,2013-08-30 03:35:00,
2013-08-29 23:40:00,73.2,63.3,29.14,North,0,0.0,0.0,71,0.00,,,0.00,VWS V14.01,2013-08-30 03:40:00,
2013-08-29 23:45:00,73.2,63.3,29.14,North,0,0.0,0.0,71,0.00,,,0.00,VWS V14.01,2013-08-30 03:45:00,
2013-08-29 23:50:00,73.2,63.3,29.14,North,0,0.0,0.0,71,0.00,,,0.00,VWS V14.01,2013-08-30 03:50:00,
2013-08-29 23:55:00,73.2,63.3,29.14,North,0,0.0,0.0,71,0.00,,,0.00,VWS V14.01,2013-08-30 03:55:00,